Location: Powder Track
(41.8531°N, 72.3584°W)
Time: 07:45:01
(UTC+00:00)

Altair - Pass Details

Date: 31 July 2021
Orbit: 1501 x 1682 km, 47.2° (Epoch: 19 September)

Event Time Altitude Azimuth Distance (km) Brightness Sun altitude
Exits shadow 06:20:27 48° 196° (SSW) 1,932 7.5 -26.9°
Maximum altitude 06:22:59 62° 144° (SE) 1,690 7.5 -26.7°
Drops below altitude 10° 06:32:01 10° 66° (ENE) 3,665 10.1 -26.0°
Sets 06:35:03 0° 64° (ENE) 4,641 10.8 -25.7°
